CZ-6A DEB, 61432

Orbit data source: Space-Track

CZ-6A DEB, 61432 is space debris in LEO originally from a launch on Tue, 06 Aug 2024 UTC launched from the Taiyaun Space Center, China (TSC). Debris objects in space refer to the collection of defunct objects orbiting the Earth. Examples of debris include non-operational satellites, rocket bodies, and fragments generated from explosions, collisions, or faulty payload assembly.

Loading next visibility...
Identifier
61432, 2024-140YZ
Orbit
LEO
Country
Flag of CNCN / PRC
Related business
Manufacturer
SAST
Mission
Spacecraft
Bus & Motor
Unknown
Mass
Unknown
Launch date (UTC)
2024-08-06 (2 years ago)
Launch vehicle
Unknown
Launch site
Taiyaun Space Center, China (TSC)
Object type
Payload
Rocket body
Debris
Shape & HBR
Unknown shape, 0.1 m
Radar Cross Section
Medium (>0.1 m² and <1 m²)

Expand to show TLE details & history
Last TLE update: 14 hours ago

TLE from 14 hours ago
0 CZ-6A DEB
1 61432U 24140YZ  26171.26918293  .00011771  00000-0  88187-3 0  9996
2 61432  89.0894 273.8245 0156344 132.4688 228.9883 14.93266390 98990
Epoch: 2026-06-20T06:27Z
TLE epoch observation values (Epoch: 2026-06-20T06:27:37.405Z)
Latitude
-0.00001°
Longitude
-91.56759°
Altitude
663.357 km
Speed
7.486 km/s
True Right ascension
18h 15m 17s
True Declination
0° 00' 00"
Sunlit
Object was in full shadow at epoch
Visualization orbit readout
Latitude
Unknown
Longitude
Unknown
Altitude
Unknown
Speed
Unknown
Apparent Right ascension
Unknown
Apparent Declination
Unknown
Sunlit
N/A
Visualization observer readout
Local Sidereal Time
07:20:51
Azimuth
Unknown
Elevation
Unknown
Doppler factor
Unknown
Orbital elements
Apogee altitude
693.463 km
Perigee altitude
475.746 km
Semi-major axis
6,962.741 km
Eccentricity
0.01563
Inclination
89.0894°
RAAN
273.8245°
Arg. of periapsis
132.4688°
True anomaly
227.65367°
Mean anomaly
228.9883°
Eccentric anomaly
228.31927°
Mean motion
3.73571 °/min
Orbital period
96.37 mins
BSTAR
0.00088187
Loading maneuver chart data...
Computing Atmospheric mass density...
Loading historical data...
Loading historical data...
Loading historical data...
Loading historical data...
Loading historical data...
Loading historical data...
Loading historical data...

Documentation

Showing up to 5 results
|